NOAA 17 DEB, 48715

Orbit data source: Space-Track

NOAA 17 DEB, 48715 is space debris in SSO originally from a launch on Mon, 24 Jun 2002 UTC launched from the Air Force Western Test Range (AFWTR). Debris objects in space refer to the collection of defunct objects orbiting the Earth. Examples of debris include non-operational satellites, rocket bodies, and fragments generated from explosions, collisions, or faulty payload assembly.

Loading next visibility...
Identifier
48715, 2002-032AY
Orbit
SSO
Country
Flag of USUS
Related business
Manufacturer
Unknown
Mission
Spacecraft
Bus & Motor
Unknown
Mass
Unknown
Launch date (UTC)
2002-06-24 (23 years ago)
Launch vehicle
Unknown
Launch site
Air Force Western Test Range (AFWTR)
Object type
Payload
Rocket body
Debris
Shape & HBR
Unknown shape, 0.1 m
Radar Cross Section
Small (<0.1 m²)

Expand to show TLE details & history
Last TLE update: 17 hours ago

TLE from 17 hours ago
0 NOAA 17 DEB
1 48715U 02032AY  25349.73158139  .00023114  00000-0  29573-2 0  9991
2 48715  98.7297 343.2298 0015254  12.5436 347.6151 14.81271009246178
Epoch: 2025-12-15T17:33Z
TLE epoch observation values (Epoch: 2025-12-15T17:33:28.632Z)
Latitude
0.00003°
Longitude
-4.76544°
Altitude
617.876 km
Speed
7.556 km/s
True Right ascension
22h 52m 55s
True Declination
0° 00' 00"
Sunlit
Object was in daylight at epoch
Visualization orbit readout
Latitude
Unknown
Longitude
Unknown
Altitude
Unknown
Speed
Unknown
Apparent Right ascension
Unknown
Apparent Declination
Unknown
Sunlit
N/A
Visualization observer readout
Local Sidereal Time
09:25:57
Azimuth
Unknown
Elevation
Unknown
Doppler factor
Unknown
Orbital elements
Apogee altitude
633.072 km
Perigee altitude
611.715 km
Semi-major axis
7,000.53 km
Eccentricity
0.00153
Inclination
98.7297°
RAAN
343.2298°
Arg. of periapsis
12.5436°
True anomaly
347.57754°
Mean anomaly
347.6151°
Eccentric anomaly
347.59633°
Mean motion
3.7055 °/min
Orbital period
97.15 mins
BSTAR
0.0029573
Loading maneuver chart data...
Computing Atmospheric mass density...
Loading historical data...
Loading historical data...
Loading historical data...
Loading historical data...
Loading historical data...
Loading historical data...
Loading historical data...

Documentation

Showing up to 5 results
|